Regional Weather Roundup
Issued by NWS Newport/Morehead, NC

Current Version | Previous Version | Graphics & Text | Print | Product List | Glossary Off
Versions: 1 2 3 4 5 6 7 8 9 10 11 12 13 14 15 16 17 18 19 20 21 22 23 24 25 26 27 28 29 30 31 32 33 34 35 36 37 38 39 40 41 42 43 44 45 46 47 48 49 50

000
ASUS42 KMHX 280122
RWRMHX
WEATHER ROUNDUP FOR EASTERN NORTH CAROLINA
NATIONAL WEATHER SERVICE NEWPORT/MOREHEAD CITY NC
900 PM EDT SUN JUL 27 2014

NOTE: "FAIR" INDICATES FEW OR NO CLOUDS BELOW 12,000 FEET
WITH NO SIGNIFICANT WEATHER AND/OR OBSTRUCTIONS TO VISIBILITY

NCZ015>017-031-032-045>047-102-103-280200-
NORTH COAST

CITY           SKY/WX    TMP DP  RH WIND       PRES   REMARKS
EDENTON        MOCLDY    78  73  82 S6        29.81F
ELIZABETH CITY PTCLDY    75  70  84 SW7       29.81S
KITTY HAWK     PTCLDY    80  70  72 SW7       29.81S
MANTEO         NOT AVBL

$$

NCZ045>047-081-094-103-104-280200-
CENTRAL COAST

CITY           SKY/WX    TMP DP  RH WIND       PRES   REMARKS
FRISCO         PTCLDY    81  78  91 SW8       29.84S
SWANQUARTER      N/A     82 N/A N/A S6        29.79S

$$

NCZ095-097-098-100-101-280200-
SOUTHERN COAST

CITY           SKY/WX    TMP DP  RH WIND       PRES   REMARKS
BEAUFORT       PTCLDY    83  78  85 SW15        N/A
CEDAR ISLAND     N/A     81 N/A N/A S5G10     29.88S
JACKSONVILLE   PTCLDY    82  74  76 SW7       29.83S
NEWPORT        NOT AVBL
PINEY ISLAND   PTCLDY    84  79  85 SW8       29.84R
WILMINGTON     CLEAR     84  76  76 SW13      29.85S


$$

NCZ011>013-027>030-043-044-078>080-089-090>093-098-280200-
COASTAL PLAIN

CITY           SKY/WX    TMP DP  RH WIND       PRES   REMARKS
AHOSKIE        MOCLDY    75  72  89 S3        29.81S
CLINTON        PTCLDY    82  75  78 SW5       29.84S
ELIZABETHTOWN  PTCLDY    84  71  65 SW5       29.85S
GOLDSBORO      MOCLDY    82  78  87 S6        29.81R
GREENVILLE     MOCLDY    77  73  88 CALM      29.85S
HAVELOCK       MOCLDY    82  75  79 S7        29.84S
KENANSVILLE    PTCLDY    81  72  73 CALM      29.85R
KINSTON        PTCLDY    79  75  89 CALM      29.84R
NEW BERN       PTCLDY    82  75  79 CALM      29.84S
RICHLANDS      PTCLDY    81  72  74 SW7       29.84R
ROANOKE RAPIDS NOT AVBL
ROCKY MOUNT    MOCLDY    77  74  90 S5        29.81S
WASHINGTON     PTCLDY    78  74  86 S3        29.82F
WHITEVILLE     PTCLDY    83  74  73 SW5       29.86S

$$

AMZ130-135-150-152-154-156-158-170-250-252-270-ANZ085-086-088-633-658-670-280200-
MARINE OBSERVATIONS

STATION/POSITION TIME  TEMP    WIND        PRES    WAVE   SWELL
                       AIR SEA DIR/SP/G            HT/PER HT/PER
                 (UTC) (F)     (DEG/KT/KT) (MB)    (FT/S) (FT/S)
CHESAPEAKE LIGHT NOT AVBL
BUOY 44014       0100   80 78  230/ 14/ 16 1008.5    3/ 5   2/ 8
DUCK             0100   80 64  240/ 14/ 19 1008.9
2E DUCK          0100                        N/A     2/11
OREGON INLET     0100   81 82  220/ 14/ 16 1009.8
BUOY 44095       0100      79                N/A     3/ 5
20E OREGON INLET NOT AVBL
HATTERAS CG      0100   82 83  230/ 10/ 15 1010.8
DIAMOND BUOY     0100          VRB 17/ 21  1010.0    3/11   2/11
CAPE LOOKOUT     0100   82     220/ 12/ 15 1010.6
BEAUFORT LAB     0100   83 83  220/  7/ 14 1010.4
30 SE NEW RIVER  0100   83 82  230/ 19/ 21 1011.0    3/ 6   2/ 8
5 SE WRIGHTSVILL 0100   80 83  230/ 17/ 21   N/A
BUOY 41002       0047   82 81  240/ 17/ 19 1015.5    4/ 9   3/ 9
BUOY 41004       0100   84 84  210/ 17/ 19 1012.2    3/ 4   2/11

$$



USA.gov is the U.S. government's official web portal to all federal, state and local government web resources and services.